This is the latest recevied weather packets stored in our database for station/object KF0ZH. If no packets are shown the sender has not sent any weather packets the latest 10 day(s).
| Time | Temp. | Humidity | Pressure | Rain* | Wind** | Luminosity | Snow |
|---|---|---|---|---|---|---|---|
| 1777928522 | 15° C | 48% | 999.5 hPa | 0 mm | 1.34 m/s, 316° | - | - |
| 1777927923 | 15° C | 48% | 999.5 hPa | 0 mm | 4.92 m/s, 277° | - | - |
| 1777927632 | 14.44° C | 50% | 999.5 hPa | 0 mm | 2.24 m/s, 313° | - | - |
| 1777927325 | 14.44° C | 49% | 999.5 hPa | 0 mm | 3.13 m/s, 326° | - | - |
| 1777927024 | 15° C | 47% | 999.4 hPa | 0 mm | 4.47 m/s, 288° | - | - |
| 1777926724 | 15° C | 48% | 999.3 hPa | 0 mm | 3.13 m/s, 243° | - | - |
| 1777926431 | 14.44° C | 49% | 999.4 hPa | 0 mm | 2.24 m/s, 253° | - | - |
| 1777925824 | 14.44° C | 50% | 999.2 hPa | 0 mm | 3.58 m/s, 322° | - | - |
| 1777925523 | 14.44° C | 49% | 999.2 hPa | 0 mm | 3.13 m/s, 307° | - | - |
| 1777925229 | 15° C | 50% | 998.9 hPa | 0 mm | 3.58 m/s, 312° | - | - |
| 1777924024 | 15° C | 50% | 999 hPa | 0 mm | 1.79 m/s, 341° | - | - |
| 1777923724 | 14.44° C | 50% | 999 hPa | 0 mm | 1.34 m/s, 281° | - | - |
| 1777923423 | 14.44° C | 51% | 998.9 hPa | 0 mm | 3.13 m/s, 316° | - | - |
| 1777922823 | 15.56° C | 50% | 998.8 hPa | 0 mm | 0 m/s | - | - |
| 1777922223 | 15° C | 50% | 998.6 hPa | 0 mm | 3.13 m/s, 286° | - | - |
| 1777921624 | 16.11° C | 49% | 998.6 hPa | 0 mm | 0 m/s | - | - |
| 1777921324 | 15.56° C | 52% | 998.4 hPa | 0 mm | 0 m/s | - | - |
| 1777921089 | 15° C | 52% | 998.5 hPa | 0 mm | 0 m/s | - | - |
| 1777921037 | 15° C | 52% | 998.5 hPa | 0 mm | 0 m/s | - | - |
| 1777920424 | 15° C | 51% | 998.3 hPa | 0 mm | 0 m/s | - | - |
| 1777920124 | 15° C | 51% | 998.3 hPa | 0 mm | 3.13 m/s, 250° | - | - |
| 1777919823 | 15° C | 50% | 998.2 hPa | 0 mm | 4.02 m/s, 295° | - | - |
| 1777919523 | 14.44° C | 50% | 998.1 hPa | 0 mm | 2.24 m/s, 237° | - | - |
| 1777919232 | 14.44° C | 50% | 998.1 hPa | 0 mm | 0 m/s | - | - |
| 1777918624 | 14.44° C | 49% | 998.1 hPa | 0 mm | 3.13 m/s, 255° | - | - |
* Rain latest hour (hover to see other rain measurements)
** Current wind speed in m/s (hover to see current wind gust speed)